GW1125 Weather Reports


time (UTC)temp
C
wind
direction
speed
KPH
gust
KPH
rain 1hr
cm
rain 24hr
cm
rain mn
cm
humidity
%
barometer
mb
20260901001201 25 237 6.4 9.7 0.00 0.00 0.00 48 1006.9
20260901000136 26 105 0.0 0.0 0.00 0.00 0.00 49 1006.9
20260831235133 25 87 1.6 1.6 0.00 0.00 0.00 49 1007.0
20260831234109 25 89 3.2 3.2 0.00 0.00 0.00 49 1007.1
20260831233053 25 82 4.8 4.8 0.00 0.00 0.00 49 1007.3
20260831232014 25 40 1.6 3.2 0.00 0.00 0.00 50 1007.3
20260831230952 25 65 3.2 4.8 0.00 0.00 0.00 49 1007.3
20260831225946 25 63 3.2 3.2 0.00 0.00 0.00 50 1007.7
20260831224925 25 137 0.0 1.6 0.00 0.00 0.00 49 1007.6
20260831223910 25 357 6.4 9.7 0.00 0.00 0.00 49 1007.8
20260831222905 25 72 3.2 3.2 0.00 0.00 0.00 50 1007.8
20260831221858 25 131 1.6 3.2 0.00 0.00 0.00 50 1007.9
20260831220816 23 105 0.0 0.0 0.00 0.00 0.00 53 1008.1
20260831215759 23 78 4.8 4.8 0.00 0.00 0.00 52 1008.4
20260831214730 23 31 3.2 3.2 0.00 0.00 0.00 53 1008.3
20260831213721 23 9 6.4 6.4 0.00 0.00 0.00 52 1008.2
20260831212705 23 159 1.6 4.8 0.00 0.00 0.00 53 1008.5
20260831211650 23 104 0.0 0.0 0.00 0.00 0.00 55 1008.8
20260831210632 23 275 3.2 3.2 0.00 0.00 0.00 53 1008.6
20260831205621 22 355 6.4 6.4 0.00 0.00 0.00 55 1008.9
20260831204551 22 135 4.8 6.4 0.00 0.00 0.00 56 1009.0
20260831203548 22 103 1.6 3.2 0.00 0.00 0.00 57 1009.1
20260831202530 21 135 3.2 6.4 0.00 0.00 0.00 58 1009.3
20260831201458 22 124 0.0 0.0 0.00 0.00 0.00 58 1009.1
20260831200430 21 329 4.8 4.8 0.00 0.00 0.00 60 1009.5
20260831195411 21 287 3.2 4.8 0.00 0.00 0.00 59 1009.7
20260831194347 21 101 3.2 3.2 0.00 0.00 0.00 61 1009.9
20260831193335 21 177 3.2 3.2 0.00 0.00 0.00 61 1009.9
20260831192312 21 21 6.4 9.7 0.00 0.00 0.00 61 1010.0
20260831191257 21 26 3.2 6.4 0.00 0.00 0.00 60 1010.2
20260831190250 20 110 3.2 3.2 0.00 0.00 0.00 62 1010.3
20260831185231 20 97 3.2 4.8 0.00 0.00 0.00 62 1010.6
20260831184159 20 104 1.6 3.2 0.00 0.00 0.00 64 1010.8
20260831183137 19 102 1.6 3.2 0.00 0.00 0.00 66 1010.9
20260831182120 19 97 1.6 1.6 0.00 0.00 0.00 68 1010.9
20260831181101 18 188 3.2 4.8 0.00 0.00 0.00 69 1011.0
20260831180041 19 68 1.6 3.2 0.00 0.00 0.00 70 1011.2
20260831175032 18 6 3.2 4.8 0.00 0.00 0.00 73 1011.2
20260831174012 17 96 3.2 4.8 0.00 0.00 0.00 73 1011.4
20260831172957 17 107 0.0 1.6 0.00 0.00 0.00 75 1011.4
20260831171947 17 106 0.0 0.0 0.00 0.00 0.00 75 1011.3
20260831170923 17 96 0.0 0.0 0.00 0.00 0.00 77 1011.6
20260831165917 16 100 0.0 0.0 0.00 0.00 0.00 79 1011.6
20260831164917 15 93 0.0 0.0 0.00 0.00 0.00 82 1011.8
20260831163906 15 115 1.6 1.6 0.00 0.00 0.00 83 1011.8
20260831162841 15 97 0.0 1.6 0.00 0.00 0.00 83 1011.9
20260831161830 14 109 1.6 1.6 0.00 0.00 0.00 83 1012.2
20260831160801 13 88 1.6 1.6 0.00 0.00 0.00 84 1012.3
20260831155746 13 99 0.0 0.0 0.00 0.00 0.00 85 1012.1
20260831154742 13 85 1.6 1.6 0.00 0.00 0.00 87 1012.3
20260831153724 12 91 0.0 0.0 0.00 0.00 0.00 88 1012.5
20260831152716 12 98 0.0 0.0 0.00 0.00 0.00 90 1012.6
20260831151654 11 96 0.0 0.0 0.00 0.00 0.00 94 1012.4
20260831150624 11 102 0.0 0.0 0.00 0.00 0.00 97 1012.5
20260831145550 10 103 0.0 0.0 0.00 0.00 0.00 98 1012.6
20260831144548 10 103 0.0 0.0 0.00 0.00 0.00 98 1012.3
20260831143519 10 104 0.0 0.0 0.00 0.00 0.00 98 1012.5
20260831142453 10 107 0.0 0.0 0.00 0.00 0.00 98 1012.4
20260831141432 9 106 0.0 0.0 0.00 0.00 0.00 98 1012.3
20260831140424 9 107 0.0 0.0 0.00 0.00 0.00 98 1012.5
20260831135402 9 106 0.0 0.0 0.00 0.00 0.00 98 1012.5
20260831134348 9 107 0.0 0.0 0.00 0.00 0.00 98 1012.4
20260831133337 9 106 0.0 0.0 0.00 0.00 0.00 97 1012.3
20260831132313 9 107 0.0 0.0 0.00 0.00 0.00 97 1012.3
20260831131257 9 107 0.0 0.0 0.00 0.00 0.00 97 1012.5
20260831130235 9 107 0.0 0.0 0.00 0.00 0.00 97 1012.5
20260831125222 9 107 0.0 0.0 0.00 0.00 0.00 97 1012.6
20260831124222 10 107 0.0 0.0 0.00 0.00 0.00 97 1012.7
20260831123206 10 107 0.0 0.0 0.00 0.00 0.00 97 1012.7
20260831122200 10 107 0.0 0.0 0.00 0.00 0.00 97 1012.8
20260831121140 10 107 0.0 0.0 0.00 0.00 0.00 96 1012.9
20260831120130 10 107 0.0 0.0 0.00 0.00 0.00 96 1012.7
20260831115112 10 107 0.0 0.0 0.00 0.00 0.00 96 1013.0
20260831114044 10 109 0.0 0.0 0.00 0.00 0.00 96 1012.8
20260831113038 10 106 0.0 0.0 0.00 0.00 0.00 96 1013.0
20260831112031 10 106 0.0 0.0 0.00 0.00 0.00 95 1013.1
20260831111021 10 106 0.0 0.0 0.00 0.00 0.00 95 1013.0
20260831110007 11 106 0.0 0.0 0.00 0.00 0.00 95 1013.2
20260831105000 10 106 0.0 0.0 0.00 0.00 0.00 95 1013.2
20260831103948 11 106 0.0 0.0 0.00 0.00 0.00 95 1013.4
20260831102919 10 106 0.0 0.0 0.00 0.00 0.00 95 1013.5
20260831101902 11 106 0.0 0.0 0.00 0.00 0.00 94 1013.5
20260831100902 11 109 0.0 0.0 0.00 0.00 0.00 94 1013.5
20260831095839 11 109 0.0 0.0 0.00 0.00 0.00 93 1013.6
20260831094837 11 109 0.0 0.0 0.00 0.00 0.00 93 1013.7
20260831093830 11 109 0.0 0.0 0.00 0.00 0.00 92 1014.0
20260831092817 11 109 0.0 0.0 0.00 0.00 0.00 92 1014.0
20260831091753 11 108 0.0 0.0 0.00 0.00 0.00 92 1014.1
20260831090721 11 108 0.0 0.0 0.00 0.00 0.00 91 1014.2
20260831085706 11 108 0.0 0.0 0.00 0.00 0.00 92 1014.2
20260831084704 11 108 0.0 0.0 0.00 0.00 0.00 91 1014.4
20260831083631 11 109 0.0 0.0 0.00 0.00 0.00 91 1014.3
20260831082602 11 108 0.0 0.0 0.00 0.00 0.00 91 1014.5
20260831081548 11 108 0.0 0.0 0.00 0.00 0.00 91 1014.5
20260831080529 11 108 0.0 0.0 0.00 0.00 0.00 91 1014.5
20260831075519 12 108 0.0 0.0 0.00 0.00 0.00 90 1014.6
20260831074453 12 108 0.0 0.0 0.00 0.00 0.00 89 1014.7
20260831073450 12 108 0.0 0.0 0.00 0.00 0.00 89 1014.8
20260831072429 12 108 0.0 0.0 0.00 0.00 0.00 89 1014.8
20260831071422 12 108 0.0 0.0 0.00 0.00 0.00 87 1014.9
20260831070348 12 108 0.0 0.0 0.00 0.00 0.00 86 1015.1
20260831065331 12 109 0.0 0.0 0.00 0.00 0.00 85 1014.9
20260831064307 13 109 0.0 0.0 0.00 0.00 0.00 84 1015.1
20260831063248 13 109 0.0 0.0 0.00 0.00 0.00 83 1015.3
20260831062233 14 109 0.0 0.0 0.00 0.00 0.00 80 1015.5
20260831061222 14 109 0.0 0.0 0.00 0.00 0.00 79 1015.6
20260831060155 14 107 0.0 0.0 0.00 0.00 0.00 79 1015.4
20260831055134 14 105 0.0 0.0 0.00 0.00 0.00 78 1015.5
20260831054113 14 105 0.0 0.0 0.00 0.00 0.00 78 1015.6
20260831053038 15 103 0.0 0.0 0.00 0.00 0.00 77 1015.8
20260831052034 15 102 0.0 0.0 0.00 0.00 0.00 75 1016.0
20260831051019 15 102 0.0 0.0 0.00 0.00 0.00 74 1015.8
20260831050014 15 102 0.0 0.0 0.00 0.00 0.00 73 1015.9
20260831044944 15 100 0.0 0.0 0.00 0.00 0.00 72 1016.1
20260831043910 16 103 0.0 0.0 0.00 0.00 0.00 71 1016.0
20260831042902 16 102 0.0 0.0 0.00 0.00 0.00 70 1016.1
20260831041841 16 103 0.0 0.0 0.00 0.00 0.00 69 1016.0
20260831040822 16 95 1.6 1.6 0.00 0.00 0.00 69 1016.0
20260831035822 16 108 0.0 0.0 0.00 0.00 0.00 68 1016.1
20260831034804 16 102 0.0 0.0 0.00 0.00 0.00 69 1016.0
20260831033732 16 83 0.0 1.6 0.00 0.00 0.00 67 1016.0
20260831032722 16 103 0.0 0.0 0.00 0.00 0.00 67 1016.0
20260831031712 16 86 0.0 0.0 0.00 0.00 0.00 68 1015.9
20260831030703 16 105 0.0 0.0 0.00 0.00 0.00 67 1015.9
20260831025656 17 104 0.0 0.0 0.00 0.00 0.00 65 1015.8
20260831024647 17 102 0.0 0.0 0.00 0.00 0.00 63 1016.0
20260831023631 18 107 0.0 0.0 0.00 0.00 0.00 61 1016.0
20260831022603 18 100 0.0 0.0 0.00 0.00 0.00 59 1016.1
20260831021529 18 82 0.0 0.0 0.00 0.00 0.00 58 1016.2
20260831020451 19 115 0.0 1.6 0.00 0.00 0.00 57 1016.3
20260831015427 19 105 0.0 0.0 0.00 0.00 0.00 56 1016.3
20260831014410 20 105 0.0 0.0 0.00 0.00 0.00 54 1016.3
20260831013405 20 74 1.6 3.2 0.00 0.00 0.00 53 1016.4
20260831012359 20 84 3.2 4.8 0.00 0.00 0.00 53 1016.4
20260831011339 21 102 1.6 3.2 0.00 0.00 0.00 53 1016.4
20260831010325 20 85 0.0 0.0 0.00 0.00 0.00 54 1016.6
20260831005242 21 149 1.6 3.2 0.00 0.00 0.00 54 1016.5
20260831004216 21 110 1.6 1.6 0.00 0.00 0.00 54 1016.5
20260831003211 21 101 0.0 0.0 0.00 0.00 0.00 52 1016.6
20260831002157 21 104 1.6 3.2 0.00 0.00 0.00 52 1016.7